Wind_Speed
39 39 38 37 37 36 36 36 36 36 36 36 35 35 34 34 33 33 34 34 34 34 33 33 33 33 33 34 34 35 36 37 37 38 39 40 41 42 42 43 43 43 44
41 41 40 39 38 38 37 37 37 37 37 37 36 36 35 35 34 34 34 34 34 34 34 34 34 34 34 35 36 37 38 38 39 40 40 41 42 43 44 44 45 46 46
41 41 41 41 40 39 38 38 37 37 37 36 36 36 35 35 35 35 35 35 34 34 34 35 35 36 36 37 38 39 40 40 41 42 42 42 43 43 44 45 47 47 48
42 42 42 42 41 41 40 38 38 37 37 37 36 36 36 36 36 36 36 35 35 35 35 36 37 37 38 39 40 41 42 43 43 43 44 45 45 45 44 45 47 48 48
41 41 41 41 41 40 39 39 38 37 37 36 36 36 37 37 36 35 35 36 36 36 36 37 38 38 39 41 42 43 44 44 45 45 46 46 47 47 47 45 46 47 48
40 40 40 40 40 39 38 37 37 37 36 36 36 36 36 36 35 35 35 36 36 37 38 38 39 40 41 43 44 44 45 46 47 47 48 48 48 49 49 48 47 47 48
39 39 39 39 38 37 37 37 36 36 36 36 36 36 36 36 36 36 36 37 37 38 39 40 41 42 43 44 45 46 47 48 48 49 49 49 49 50 50 50 49 48 48
38 38 38 37 37 37 36 36 36 35 35 35 35 35 35 36 36 36 37 38 39 39 40 41 42 43 44 45 46 47 48 49 49 49 50 50 50 50 51 51 51 51 50
35 35 36 35 35 35 35 35 35 34 34 35 35 34 35 35 36 37 39 39 40 40 41 42 43 44 46 47 48 49 49 49 50 50 50 51 51 51 52 52 53 53 53
32 33 34 34 34 33 33 34 34 34 34 34 34 35 35 36 37 38 39 40 40 41 42 44 45 46 47 48 48 49 50 50 50 51 51 52 52 52 53 53 54 55 56
30 30 31 32 32 32 32 33 33 33 33 33 34 34 35 37 38 38 39 40 41 42 44 45 46 47 48 49 49 50 50 50 51 51 52 52 52 53 54 54 55 56 58
29 29 29 29 30 30 31 31 32 32 33 34 35 36 36 37 37 38 39 41 43 44 45 46 47 47 48 49 50 50 50 51 51 52 52 52 53 54 55 56 57 58 60
29 29 28 29 29 30 31 31 32 33 33 34 34 35 36 37 38 40 42 43 44 45 45 46 47 48 49 50 50 51 51 51 52 52 53 54 55 55 56 58 59 61 62
28 28 29 29 30 30 31 32 32 33 34 34 35 35 37 39 40 41 42 43 44 44 45 47 48 49 50 50 51 51 51 52 52 53 54 55 56 57 59 60 62 64 65
27 28 29 30 30 31 32 32 33 34 34 35 35 36 38 39 40 41 42 43 44 45 46 47 49 49 50 51 51 52 52 53 54 55 56 57 58 60 62 63 65 67 69
27 28 29 29 30 30 31 32 33 34 34 35 36 37 39 40 41 42 42 43 44 45 47 48 49 50 51 52 52 53 53 54 55 56 58 59 61 63 64 66 69 71 74
27 28 28 29 29 30 31 32 33 33 34 36 37 38 39 40 41 42 43 44 45 47 48 49 49 50 52 52 53 54 55 56 58 59 61 62 64 66 68 70 72 74 77
27 27 28 29 30 30 31 32 33 34 34 35 36 38 39 40 41 42 44 45 46 47 48 49 51 52 53 54 55 56 58 59 60 62 64 65 67 70 72 74 76 78 80
27 27 28 28 29 30 31 32 33 34 35 36 36 38 39 41 42 44 45 45 46 47 49 50 52 53 54 56 57 59 60 61 63 65 67 69 71 73 76 78 79 80 81
26 27 28 29 29 30 31 32 34 34 35 36 37 39 40 42 43 44 45 46 47 48 50 51 53 55 56 58 59 61 63 65 66 68 70 72 73 76 78 80 81 81 80
27 27 28 29 30 31 32 33 34 35 36 37 38 39 41 42 43 44 45 46 48 49 51 53 55 56 58 60 62 64 67 68 70 71 72 74 76 78 79 80 80 79 78
27 28 28 29 30 32 33 34 34 35 36 37 39 40 41 42 43 44 46 47 49 51 53 54 56 58 60 62 65 67 69 72 73 74 75 77 78 78 78 78 77 76 74
28 29 30 31 32 33 33 33 34 35 37 38 39 40 41 42 44 45 47 48 50 52 54 56 58 60 63 65 68 70 72 74 76 77 78 78 78 78 76 75 74 72 69
29 29 30 31 32 32 33 34 35 36 36 38 39 41 42 43 44 46 48 50 52 55 57 59 61 64 66 68 71 73 74 76 78 79 79 78 77 75 73 71 69 66 62
30 31 31 32 32 33 34 34 35 36 38 39 40 41 43 44 46 48 50 52 55 57 60 62 65 67 69 71 74 76 78 79 80 80 79 77 74 72 69 66 62 59 55
31 31 32 32 33 33 34 35 36 37 39 40 41 43 44 46 48 50 52 54 57 60 63 65 68 71 73 75 77 78 80 80 80 79 76 73 70 67 63 59 55 52 49
Wind_Direction
258 260 261 263 264 266 268 271 272 273 274 276 277 278 279 279 279 280 280 280 281 282 283 284 285 285 286 288 289 290 291 292 293 292 292 291 292 291 291 290 289 287 286
259 261 263 264 265 267 269 270 271 272 273 274 276 277 278 278 279 279 279 280 280 281 282 283 285 286 287 289 290 291 292 292 293 292 292 291 291 291 291 290 289 288 287
261 262 263 264 266 267 269 270 271 271 272 272 274 275 276 277 278 278 279 280 280 281 283 284 285 286 288 289 290 291 292 293 293 293 292 292 291 290 290 290 289 288 287
261 262 263 264 265 266 268 269 270 270 270 271 272 273 275 276 277 278 279 280 280 281 283 284 286 286 288 289 291 292 292 293 294 294 294 293 292 290 289 288 288 288 287
262 262 263 263 264 266 267 267 268 268 268 269 271 273 274 276 276 277 278 279 280 281 283 284 286 287 288 290 291 293 293 294 294 294 294 293 293 292 290 288 287 286 286
263 263 263 263 264 265 265 265 265 266 267 268 270 271 273 274 275 276 278 279 281 282 283 284 286 287 289 291 292 293 293 294 294 294 294 294 293 292 291 289 288 287 286
263 263 263 263 263 263 264 264 264 265 266 267 269 270 271 273 275 276 278 279 281 282 284 286 287 289 291 292 292 293 293 294 295 295 295 294 294 293 291 290 289 287 287
263 263 263 263 263 263 263 264 263 264 265 266 268 269 271 273 274 276 278 280 282 284 286 287 289 290 291 292 293 293 294 294 295 295 295 295 294 293 292 291 290 289 288
263 263 262 262 263 263 263 263 263 264 265 266 266 268 270 273 275 277 279 281 282 285 286 287 289 290 291 292 293 294 294 294 295 295 295 295 294 293 293 292 292 291 290
262 262 263 263 263 263 263 263 264 264 264 265 266 268 271 274 276 278 280 281 283 285 287 288 289 291 292 293 294 294 295 295 296 296 296 295 295 294 294 293 293 293 292
263 263 263 264 264 264 264 264 263 263 264 265 267 270 272 275 276 278 279 281 284 286 288 289 291 292 293 294 294 295 296 296 296 296 296 296 295 295 294 294 294 294 293
264 264 264 264 264 263 263 263 263 263 264 266 268 270 272 274 276 278 280 283 285 287 289 290 291 293 294 294 295 296 296 297 297 297 296 296 296 296 296 295 295 295 295
266 265 265 264 264 264 264 264 264 265 266 268 270 272 274 275 278 280 282 284 286 288 289 291 292 293 294 295 296 296 297 297 297 297 297 298 297 297 297 297 297 296 296
268 267 266 266 266 266 266 266 266 268 269 271 272 273 275 277 279 281 284 285 287 289 291 292 293 294 295 296 296 297 297 298 298 298 298 299 298 298 298 298 298 298 297
267 267 267 267 267 267 267 267 268 271 271 272 273 275 278 280 282 284 285 286 288 290 292 293 293 294 295 296 296 297 298 298 299 299 299 299 300 299 299 299 299 299 299
267 268 268 268 268 268 269 270 271 272 272 273 275 277 279 281 283 285 286 288 289 291 293 293 294 295 295 296 297 298 298 299 299 299 300 300 300 300 300 300 300 300 300
269 268 269 269 269 269 270 271 272 272 275 276 277 279 281 283 285 286 288 289 291 292 293 294 294 295 296 297 298 298 299 299 300 300 301 301 301 301 301 301 301 301 302
270 269 269 269 269 270 271 272 273 275 276 277 279 281 282 285 286 287 289 290 292 293 293 294 294 296 297 298 298 299 300 300 301 302 302 302 302 302 302 302 302 302 302
270 269 268 269 269 271 273 274 275 277 278 279 280 281 283 285 287 288 289 291 292 293 294 294 295 296 297 298 299 300 301 301 302 303 303 303 303 303 302 303 303 303 303
270 271 270 271 272 273 274 276 278 279 279 280 281 283 284 286 287 289 290 292 293 294 295 295 296 297 298 298 300 301 302 302 303 303 303 304 304 304 303 303 304 303 303
273 273 274 274 274 275 276 278 280 280 281 282 283 285 286 287 288 290 291 292 294 294 295 296 296 297 298 300 301 302 303 303 304 304 304 304 304 304 304 304 304 304 304
274 275 276 277 277 278 278 279 280 281 282 283 285 287 288 289 290 291 292 293 295 295 296 297 298 299 300 301 302 303 303 304 304 305 305 305 305 305 304 304 304 304 305
277 277 278 279 279 279 280 280 281 282 283 285 286 288 289 290 290 291 293 294 295 296 297 298 299 300 301 302 303 303 304 305 305 305 306 306 305 305 304 304 304 304 304
278 279 280 280 280 280 280 281 283 284 285 286 288 289 290 291 292 293 294 295 297 298 299 300 301 302 302 303 303 304 304 305 305 305 305 305 305 304 304 304 304 303 303
279 280 281 281 281 282 283 284 285 285 286 288 289 290 291 292 294 295 296 297 299 300 301 301 302 303 303 304 304 305 305 305 305 305 305 305 304 304 304 303 303 302 301
280 280 281 281 282 283 284 285 286 287 288 290 291 292 293 294 295 297 298 299 300 301 302 303 303 304 305 305 305 305 306 306 305 305 306 305 305 305 304 303 303 302 301
Height
5807 5807 5808 5808 5808 5808 5807 5807 5806 5805 5805 5804 5803 5802 5801 5799 5798 5796 5795 5793 5792 5790 5789 5787 5785 5783 5781 5779 5777 5774 5772 5769 5766 5764 5761 5758 5754 5751 5748 5745 5742 5740 5738
5798 5799 5799 5799 5800 5800 5799 5799 5798 5797 5797 5796 5795 5794 5793 5791 5790 5789 5787 5786 5784 5782 5781 5779 5777 5775 5773 5771 5769 5766 5763 5761 5758 5755 5752 5749 5746 5742 5738 5735 5732 5729 5726
5789 5790 5790 5790 5790 5791 5790 5790 5789 5789 5788 5787 5787 5786 5784 5783 5782 5781 5779 5778 5776 5775 5773 5771 5769 5767 5765 5763 5760 5757 5754 5752 5748 5745 5742 5739 5737 5733 5729 5725 5721 5718 5715
5779 5780 5780 5780 5780 5781 5781 5781 5780 5780 5780 5779 5778 5777 5776 5775 5774 5773 5771 5770 5768 5767 5765 5763 5761 5759 5756 5754 5751 5748 5745 5741 5738 5735 5731 5728 5725 5722 5720 5716 5711 5707 5704
5769 5770 5770 5770 5770 5771 5771 5771 5771 5771 5770 5770 5769 5769 5768 5767 5765 5764 5763 5761 5760 5758 5756 5754 5752 5750 5747 5744 5741 5738 5735 5731 5728 5724 5721 5717 5714 5710 5708 5706 5701 5697 5693
5759 5760 5760 5761 5761 5761 5762 5762 5762 5762 5761 5761 5760 5760 5759 5758 5757 5756 5754 5753 5751 5750 5747 5745 5743 5740 5737 5734 5731 5728 5724 5721 5717 5713 5709 5706 5702 5699 5695 5693 5690 5686 5682
5749 5750 5751 5751 5752 5752 5752 5752 5752 5753 5752 5752 5752 5751 5750 5749 5748 5747 5746 5744 5743 5741 5738 5736 5733 5730 5727 5724 5721 5717 5713 5710 5706 5702 5698 5694 5690 5686 5682 5680 5677 5674 5670
5740 5741 5741 5742 5742 5743 5743 5743 5743 5743 5743 5743 5743 5742 5742 5741 5740 5738 5737 5735 5733 5731 5729 5726 5723 5720 5717 5713 5710 5706 5702 5698 5694 5690 5686 5681 5677 5673 5669 5666 5663 5660 5658
5731 5731 5732 5732 5733 5733 5734 5734 5734 5734 5734 5734 5734 5733 5733 5732 5731 5729 5727 5726 5724 5721 5719 5716 5713 5710 5706 5702 5698 5695 5691 5686 5682 5678 5673 5669 5664 5660 5656 5652 5648 5645 5642
5722 5723 5723 5723 5724 5724 5725 5725 5726 5726 5725 5725 5725 5724 5724 5723 5722 5720 5718 5716 5714 5711 5709 5706 5702 5699 5695 5691 5687 5683 5678 5674 5670 5665 5661 5656 5651 5647 5642 5638 5634 5629 5625
5714 5714 5715 5715 5715 5716 5716 5717 5717 5717 5717 5717 5716 5716 5715 5714 5712 5710 5708 5706 5704 5701 5698 5695 5692 5688 5684 5679 5675 5671 5666 5662 5657 5652 5648 5643 5638 5634 5629 5624 5619 5614 5609
5705 5706 5706 5707 5707 5707 5708 5708 5708 5708 5708 5708 5707 5707 5706 5704 5703 5701 5699 5696 5694 5691 5687 5684 5680 5676 5672 5668 5663 5659 5654 5649 5645 5640 5635 5630 5625 5620 5615 5610 5604 5599 5594
5697 5698 5698 5699 5699 5699 5699 5700 5700 5700 5699 5699 5698 5698 5696 5695 5693 5691 5689 5686 5683 5680 5676 5673 5669 5664 5660 5656 5651 5647 5642 5637 5632 5627 5622 5617 5611 5606 5600 5595 5589 5583 5577
5690 5690 5690 5690 5691 5691 5691 5691 5691 5691 5691 5690 5689 5688 5687 5685 5683 5681 5678 5675 5672 5669 5665 5661 5657 5653 5648 5644 5639 5634 5629 5624 5619 5613 5608 5602 5597 5591 5585 5579 5573 5566 5560
5682 5682 5682 5683 5683 5683 5683 5682 5682 5682 5682 5681 5680 5678 5677 5675 5673 5670 5668 5664 5661 5658 5654 5650 5645 5641 5636 5631 5626 5622 5617 5611 5606 5600 5594 5588 5582 5575 5569 5562 5556 5548 5541
5674 5674 5674 5674 5674 5674 5674 5674 5673 5673 5672 5671 5670 5669 5667 5665 5662 5660 5657 5653 5650 5646 5642 5638 5633 5628 5624 5619 5614 5608 5603 5598 5592 5586 5580 5573 5567 5560 5553 5545 5538 5529 5520
5667 5667 5667 5666 5666 5666 5666 5665 5664 5664 5663 5662 5660 5659 5657 5654 5652 5649 5646 5642 5638 5635 5630 5626 5621 5616 5611 5606 5600 5595 5589 5584 5577 5571 5564 5558 5550 5542 5535 5528 5520 5511 5500
5659 5659 5659 5658 5658 5658 5657 5656 5655 5655 5653 5652 5650 5649 5646 5644 5641 5638 5634 5631 5627 5623 5618 5613 5608 5603 5598 5592 5587 5581 5575 5569 5562 5555 5548 5541 5533 5524 5515 5508 5500 5491 5481
5651 5651 5650 5650 5650 5649 5648 5647 5646 5645 5644 5642 5640 5638 5636 5633 5630 5627 5623 5619 5615 5610 5606 5601 5596 5590 5585 5578 5572 5566 5560 5554 5547 5540 5532 5523 5515 5506 5496 5487 5479 5471 5460
5643 5643 5642 5642 5641 5640 5639 5638 5637 5636 5634 5632 5630 5628 5625 5622 5619 5615 5611 5607 5603 5598 5593 5588 5582 5577 5571 5564 5558 5550 5544 5538 5531 5524 5515 5505 5496 5486 5475 5464 5455 5447 5438
5635 5634 5634 5633 5633 5632 5630 5629 5627 5626 5624 5622 5619 5617 5614 5610 5607 5603 5599 5595 5590 5586 5581 5575 5569 5563 5557 5550 5542 5534 5526 5519 5512 5505 5496 5487 5476 5466 5455 5443 5433 5424 5415
5627 5626 5625 5625 5624 5622 5621 5619 5617 5616 5613 5611 5609 5606 5602 5599 5595 5591 5587 5582 5578 5573 5567 5561 5555 5548 5541 5534 5526 5518 5509 5500 5492 5485 5476 5467 5456 5445 5435 5424 5414 5403 5394
5618 5617 5617 5615 5614 5612 5611 5609 5607 5605 5603 5600 5597 5594 5591 5587 5583 5579 5575 5570 5564 5559 5553 5547 5541 5534 5526 5518 5509 5501 5492 5482 5472 5464 5455 5446 5435 5424 5415 5404 5394 5385 5376
5609 5608 5607 5606 5604 5602 5601 5599 5597 5594 5592 5589 5586 5583 5579 5575 5571 5566 5562 5556 5550 5544 5538 5531 5524 5517 5509 5500 5491 5482 5473 5464 5453 5444 5435 5425 5415 5404 5394 5385 5376 5367 5359
5600 5599 5598 5596 5594 5593 5591 5589 5586 5584 5581 5578 5574 5571 5567 5563 5558 5554 5548 5542 5536 5529 5522 5515 5507 5499 5492 5483 5472 5462 5453 5443 5433 5422 5414 5405 5395 5386 5377 5368 5359 5351 5344
5590 5589 5588 5586 5584 5583 5580 5578 5575 5572 5569 5566 5562 5559 5554 5550 5545 5540 5535 5528 5521 5514 5506 5497 5489 5480 5472 5462 5453 5442 5432 5421 5410 5400 5392 5384 5375 5367 5358 5351 5344 5337 5331